Location: Mactaquac Provincial Park
(45.9573°N, 66.8897°W)
Time: 05:33:02
(UTC-03:00)

Daily predictions for brighter satellites

Satellite Brightness Start Highest point End
(mag) Time Altitude Azimuth Time Altitude Azimuth Time Altitude Azimuth
Cosmos 2297 Rocket 4.2 02:52:36 24° NE 02:52:36 24° NE 02:54:43 10° NNE
SL-16 R/B 3.8 03:05:27 35° NNE 03:05:27 35° NNE 03:09:07 10° N
ADEOS Rocket 4.2 02:59:12 10° NNE 03:03:05 41° NNE 03:03:05 41° NNE
Lacrosse 5 rocket 4.3 03:48:00 13° NNE 03:48:00 13° NNE 03:48:31 10° NE
Cosmos 2227 Rocket 3.7 03:52:29 28° NNW 03:52:29 28° NNW 03:55:40 10° NNE
Resurs 1-4 Rocket 3.2 03:45:57 10° NNE 03:49:18 40° NNE 03:49:18 40° NNE
Cosmos 2263 Rocket 4.1 03:58:29 20° ESE 04:00:00 22° E 04:04:18 10° NE
Cosmos 2279 Rocket 4.3 04:01:22 59° E 04:01:33 60° E 04:07:38 10° NNE
Gbstr 26 Del rocket 4.5 04:11:14 51° NW 04:13:27 78° NNE 04:21:38 10° ESE
ADEOS 4.1 04:08:50 10° NNE 04:12:58 56° NNE 04:12:58 56° NNE
CZ-4C R/B 3.2 04:17:53 38° NNW 04:17:53 38° NNW 04:23:13 10° NNE
Cosmos 1140 Rocket 4.1 04:18:08 51° E 04:18:08 51° E 04:23:02 10° NNE
CZ-2D R/B 2.9 04:21:33 10° N 04:25:05 40° NNW 04:25:05 40° NNW
Cosmos 2297 Rocket 3.7 04:34:25 23° NW 04:34:25 23° NW 04:38:12 10° N
Cosmos 1812 3.9 04:41:04 41° NE 04:41:04 41° NE 04:43:48 10° NNE
Cosmos 1954 Rocket 3.9 04:42:42 86° WNW 04:42:42 86° WNW 04:48:04 10° NNE
Cosmos 614 Rocket 3.9 04:43:04 72° SE 04:43:22 75° ESE 04:48:31 10° NNE
IRS-1D 4.5 04:39:27 10° N 04:43:22 37° NW 04:43:22 37° NW
ARIANE 5 R/B 3.3 04:41:15 10° N 04:44:58 38° NW 04:44:58 38° NW
SL-16 R/B 4.2 04:50:33 17° NW 04:50:33 17° NW 04:52:18 10° NW
Cosmos 676 Rocket 4.0 04:47:27 66° NW 04:47:27 66° NW 04:52:35 10° NNE
Cosmos 1378 Rocket 3.8 04:48:18 65° NNE 04:48:18 65° NNE 04:52:05 10° N
Cosmos 2180 Rocket 4.3 04:47:06 60° SW 04:48:15 77° W 04:54:28 10° N
Cosmos 1500 4.2 04:47:22 10° N 04:50:04 41° NNE 04:50:04 41° NNE
Cosmos 1570 Rocket 4.1 04:51:59 10° NNW 04:57:18 78° ENE 05:02:37 10° SSE
Cosmos 371 Rocket 4.4 04:52:45 10° N 04:57:26 44° ENE 05:02:03 10° SE
Cosmos 1441 Rocket 4.3 05:00:37 34° N 05:00:37 34° N 05:02:57 10° N
Cosmos 220 Rocket 4.4 05:02:55 46° SSE 05:03:52 59° ESE 05:08:09 10° NNE
CZ-2D R/B 4.3 04:59:56 10° N 05:02:52 38° NNW 05:02:52 38° NNW
Cosmos 2208 Rocket 4.0 04:59:18 10° NNW 05:04:38 81° ENE 05:09:52 10° SSE
Okean O Rocket 3.1 05:01:48 10° NNE 05:05:48 35° E 05:09:47 10° SSE
Cosmos 2266 Rocket 3.9 05:04:09 10° N 05:10:35 79° W 05:16:59 10° S
Abrixas rocket 2.9 05:12:15 51° E 05:12:15 51° E 05:14:50 10° ENE
ATLAS 3B R/B 4.0 05:04:58 10° S 05:11:39 38° ESE 05:18:07 10° NE
ADEOS II 2.1 05:09:05 10° NNE 05:14:22 82° ESE 05:17:45 23° S
Cosmos 1975 2.8 05:15:24 10° N 05:19:31 87° E 05:23:37 10° S
DELTA 2 R/B (1) 4.1 05:21:10 37° SW 05:22:25 43° S 05:27:41 10° ESE
Lacrosse 5 rocket 3.5 05:23:42 12° NNW 05:25:28 16° N 05:27:49 10° NE
Meteor 1-18 Rocket 4.2 05:22:53 20° SSW 05:27:09 78° WNW 05:33:06 10° N
PSLV R/B 3.7 05:23:40 10° NNE 05:27:33 84° ESE 05:29:13 32° S
ASTEX 1 3.4 05:23:18 10° N 05:28:10 58° W 05:30:23 31° SW
Okean 1 3.2 05:28:38 42° SSW 05:29:53 74° W 05:33:55 10° N
Resurs 1-4 Rocket 3.7 05:27:07 10° NNW 05:30:23 17° WNW 05:30:23 17° WNW
Cosmos 1666 3.4 05:28:54 10° N 05:32:36 53° ENE 05:36:18 10° SSE
Cosmos 1943 3.6 05:27:33 10° NW 05:32:49 40° WSW 05:38:03 10° S
SL-8 R/B 3.8 05:31:12 38° SW 05:32:59 71° SSE 05:37:46 10° ENE
Cosmos 1607 3.9 05:31:10 28° SW 05:34:38 77° NW 05:41:04 10° NE
Tiangong 1 2.9 05:38:47 17° SSE 05:38:47 17° SSE 05:39:47 10° SE
Atlas Centaur 2 3.9 05:39:52 15° SSW 05:41:31 16° S 05:44:46 10° SSE
Cosmos 1743 2.6 05:38:55 10° N 05:42:52 89° W 05:46:46 10° S
Cosmos 2263 Rocket 2.3 05:40:13 26° SW 05:43:26 61° WNW 05:49:06 10° NNE
PAYLOAD B 4.3 05:38:58 10° NNE 05:44:32 81° ESE 05:50:02 10° SSW
PSLV R/B 3.4 05:40:54 10° N 05:45:06 73° WNW 05:48:26 16° SSW
USA 215 3.8 05:39:09 10° ESE 05:45:32 58° NNE 05:51:55 10° NW
CZ-4B R/B 2.8 05:43:46 10° N 05:47:53 64° WNW 05:50:33 19° SSW
Cosmos 1544 Rocket 3.5 05:46:33 10° NNW 05:50:49 59° W 05:55:05 10° S
Cosmos 1741 Rocket 4.3 05:51:01 23° SW 05:53:59 47° WNW 05:59:06 10° NNE
Cosmos 1975 Rocket 3.7 05:53:21 26° WSW 05:55:00 35° WNW 05:59:04 10° N
Cosmos 1455 Rocket 3.1 05:54:19 10° NNW 05:58:34 55° W 06:02:46 10° S
Meteor PRIRODA 3.8 05:56:13 10° NNE 05:59:55 76° ESE 06:03:37 10° S
Intercosmos 25 Rocket 3.1 05:56:29 10° SSW 06:00:32 57° W 06:03:42 10° N
Cosmos 841 Rocket 4.0 05:56:41 10° NNW 06:01:52 64° ENE 06:07:01 10° SSE
Cosmos 468 Rocket 4.0 05:57:30 10° NNW 06:02:45 58° WSW 06:07:56 10° S
Cosmos 1437 Rocket 3.9 06:00:20 10° NW 06:03:28 23° W 06:03:55 22° WSW
Meteor 1-4 Rocket 2.4 06:00:53 10° NNW 06:04:21 59° W 06:07:45 10° S
Meteor 1-28 Rocket 4.0 06:01:32 10° SSE 06:05:11 54° ENE 06:08:52 10° N
ATLAS 5 CENTAUR R/B 3.1 06:00:00 10° NNW 06:05:43 55° NE 06:12:02 10° ESE
Meteor 1-13 Rocket 4.3 05:59:57 10° S 06:05:55 87° W 06:11:53 10° N
CZ-4B R/B 4.1 06:02:08 10° NNE 06:06:01 71° ESE 06:10:03 10° S
CZ-4C R/B 4.3 06:03:49 10° NW 06:07:50 18° N 06:12:12 10° NNE
Okean-O 4.1 06:04:55 10° NNE 06:09:08 41° E 06:13:18 10° S
CZ-4B R/B 3.2 06:13:09 10° N 06:18:23 62° WNW 06:23:37 10° SSW
Cosmos 1900 4.4 06:14:06 10° NW 06:19:17 79° WSW 06:24:22 10° SSE
Cosmos 1536 Rocket 3.6 06:16:00 10° SSW 06:20:16 58° WNW 06:24:35 10° N
SKYMED 2 4.4 06:16:04 10° SSE 06:20:18 57° ENE 06:24:35 10° N
Cosmos 1763 Rocket 3.5 06:16:35 10° NNW 06:21:51 68° WSW 06:27:07 10° S
Cosmos 1745 Rocket 4.1 06:15:31 10° N 06:21:56 89° W 06:28:16 10° S
USA 238 DEB 3.9 06:16:11 10° SSW 06:23:07 81° SE 06:30:10 10° NE
USA 238 3.9 06:16:18 10° SSW 06:23:14 81° SE 06:30:17 10° NE
TELKOM 3 2.7 06:22:56 19° WSW 06:24:26 78° NNW 06:26:33 10° ENE
Meteor 2-4 Rocket 3.7 06:20:53 10° SSW 06:26:28 81° W 06:32:16 10° N
MTI 3.8 06:23:31 10° S 06:26:44 61° WSW 06:29:59 10° NNW
Cosmos 1553 Rocket 3.9 06:24:23 10° SSW 06:30:30 73° W 06:36:36 10° N
Meteor 1-19 Rocket 4.4 06:25:46 10° SSW 06:31:29 54° WNW 06:37:11 10° N
Lacrosse 4 Rocket 3.6 06:29:45 10° NNW 06:33:31 28° NE 06:37:11 10° ESE
BREEZE-M DEB (TANK) 2.9 06:28:56 10° WNW 06:33:32 44° SW 06:35:55 10° SE
Cosmos 1271 Rocket 3.0 06:29:43 10° N 06:33:43 78° ENE 06:37:44 10° SSE
GEOS 3 Rocket 3.6 06:30:00 10° SE 06:35:12 79° SW 06:40:32 10° NW
TSX-5 4.3 06:31:49 10° NNW 06:35:44 56° NE 06:39:01 10° SE
NOAA 6 4.4 06:31:22 10° NNE 06:36:36 74° ESE 06:41:46 10° S
Cosmos 371 Rocket 4.3 06:33:42 10° NW 06:37:35 24° W 06:41:25 10° SSW
Okean O Rocket 2.7 06:38:28 10° N 06:42:01 25° WNW 06:45:34 10° WSW
Meteor 2-9 Rocket 4.4 06:37:25 10° NNW 06:42:36 49° W 06:47:54 10° SSW
Okean 1-7 Rocket 3.9 06:38:14 10° S 06:42:43 75° E 06:47:18 10° NNE
Abrixas rocket 2.6 06:45:10 10° W 06:48:22 53° N 06:51:34 10° ENE
CZ-2C R/B 4.5 06:44:25 10° SSW 06:48:39 33° W 06:52:58 10° NNW
S3M 4.1 06:44:12 10° SSW 06:50:22 57° WNW 06:56:39 10° N
Cosmos 1025 Rocket 3.0 06:46:40 10° SSW 06:50:56 80° W 06:55:15 10° N
COSMOS 2406 3.4 06:45:50 10° NW 06:51:28 54° WSW 06:57:03 10° S
